RYR4605 ESSA-EYKA

Flight info

Callsign RYR4605
Flight time 1h 12m
Altitude 27000
Route BABAP P156 RASEL/N0447F310 Y40 LITPA DCT PELUT
Aircraft B38M/M-SDFGHIRWXYZ/LB1

Departure

Time 2026-04-26 07:57
Airport Stockholm-Arlanda Airport (ESSA)

Arrival

Time 2026-04-26 09:10
Airport Kaunas International Airport (EYKA)
Time Latitude Longitude Altitude Speed Heading
2026-04-26 07:32 59.64699 17.92732 112 ft 0 kts 25°
2026-04-26 07:47 59.64685 17.92719 111 ft 4 kts 25°
2026-04-26 07:47 59.64661 17.92700 113 ft 4 kts 10°
2026-04-26 07:47 59.64640 17.92702 110 ft 0 kts 340°
2026-04-26 07:51 59.64643 17.92700 110 ft 1 kts 340°
2026-04-26 07:51 59.64654 17.92690 113 ft 4 kts 327°
2026-04-26 07:52 59.64677 17.92600 113 ft 11 kts 287°
2026-04-26 07:52 59.64705 17.92417 114 ft 17 kts 286°
2026-04-26 07:52 59.64714 17.92228 114 ft 10 kts 233°
2026-04-26 07:52 59.64643 17.92181 114 ft 12 kts 190°
2026-04-26 07:53 59.64554 17.92149 115 ft 15 kts 190°
2026-04-26 07:53 59.64433 17.92106 113 ft 19 kts 190°
2026-04-26 07:53 59.64341 17.92060 115 ft 3 kts 218°
2026-04-26 07:53 59.64332 17.91992 115 ft 8 kts 277°
2026-04-26 07:54 59.64350 17.91944 115 ft 1 kts 327°
2026-04-26 07:54 59.64355 17.91938 115 ft 2 kts 328°
2026-04-26 07:54 59.64377 17.91911 115 ft 6 kts 329°
2026-04-26 07:54 59.64396 17.91882 112 ft 0 kts 311°
2026-04-26 07:55 59.64397 17.91880 114 ft 2 kts 311°
2026-04-26 07:55 59.64411 17.91809 111 ft 11 kts 282°
2026-04-26 07:55 59.64439 17.91611 109 ft 17 kts 311°
2026-04-26 07:56 59.64482 17.91596 111 ft 0 kts
2026-04-26 07:56 59.64483 17.91597 111 ft 2 kts
2026-04-26 07:56 59.64715 17.91679 111 ft 73 kts 11°
2026-04-26 07:57 59.65457 17.91949 110 ft 140 kts 10°
2026-04-26 07:57 59.66504 17.92358 600 ft 157 kts
2026-04-26 07:57 59.67602 17.92757 1627 ft 151 kts
2026-04-26 07:57 59.68659 17.93123 2432 ft 168 kts
2026-04-26 07:58 59.69881 17.93548 3084 ft 182 kts
2026-04-26 07:58 59.71102 17.93987 4256 ft 180 kts
2026-04-26 07:58 59.72366 17.94438 4964 ft 188 kts
2026-04-26 07:58 59.73656 17.94917 5007 ft 188 kts
2026-04-26 07:59 59.74936 17.95652 4970 ft 202 kts 26°
2026-04-26 07:59 59.75860 17.97917 5663 ft 221 kts 60°
2026-04-26 07:59 59.76195 18.01078 6406 ft 252 kts 87°
2026-04-26 07:59 59.75947 18.04694 7052 ft 273 kts 91°
2026-04-26 08:00 59.75702 18.08504 7909 ft 280 kts 90°
2026-04-26 08:00 59.75459 18.12290 8963 ft 282 kts 89°
2026-04-26 08:00 59.75279 18.16174 9951 ft 280 kts 81°
2026-04-26 08:00 59.75287 18.20108 10665 ft 293 kts 81°
2026-04-26 08:01 59.75283 18.24290 11099 ft 313 kts 82°
2026-04-26 08:01 59.75262 18.28736 11638 ft 328 kts 82°
2026-04-26 08:01 59.75229 18.33256 12420 ft 333 kts 83°
2026-04-26 08:01 59.75047 18.37879 13237 ft 347 kts 96°
2026-04-26 08:02 59.74035 18.42358 14089 ft 366 kts 118°
2026-04-26 08:02 59.72177 18.45989 14716 ft 386 kts 143°
2026-04-26 08:02 59.69699 18.48229 15370 ft 396 kts 158°
2026-04-26 08:02 59.67137 18.50230 15919 ft 404 kts 155°
2026-04-26 08:03 59.64516 18.52366 16533 ft 410 kts 155°
2026-04-26 08:03 59.61858 18.54556 17099 ft 417 kts 155°
2026-04-26 08:03 59.59151 18.56798 17762 ft 423 kts 154°
2026-04-26 08:03 59.56419 18.59063 18361 ft 428 kts 154°
2026-04-26 08:04 59.53651 18.61355 18830 ft 433 kts 154°
2026-04-26 08:04 59.50848 18.63672 19290 ft 439 kts 154°
2026-04-26 08:04 59.48049 18.65982 19756 ft 444 kts 154°
2026-04-26 08:04 59.45174 18.68351 20219 ft 450 kts 154°
2026-04-26 08:05 59.42290 18.70859 20658 ft 452 kts 147°
2026-04-26 08:05 59.39653 18.74233 21071 ft 453 kts 140°
2026-04-26 08:05 59.37047 18.77693 21457 ft 460 kts 141°
2026-04-26 08:05 59.34386 18.81226 21903 ft 465 kts 141°
2026-04-26 08:06 59.31683 18.84814 22342 ft 470 kts 141°
2026-04-26 08:06 59.28967 18.88412 22780 ft 475 kts 140°
2026-04-26 08:06 59.26218 18.92047 23208 ft 479 kts 140°
2026-04-26 08:06 59.23469 18.95675 23623 ft 484 kts 140°
2026-04-26 08:07 59.20656 18.99380 23998 ft 488 kts 141°
2026-04-26 08:07 59.17821 19.03107 24418 ft 491 kts 141°
2026-04-26 08:07 59.14982 19.06831 24821 ft 493 kts 141°
2026-04-26 08:07 59.12156 19.10532 25220 ft 496 kts 141°
2026-04-26 08:08 59.09285 19.14281 25641 ft 499 kts 141°
2026-04-26 08:08 59.06397 19.18048 26051 ft 501 kts 141°
2026-04-26 08:08 59.03476 19.21850 26455 ft 504 kts 141°
2026-04-26 08:08 59.00540 19.25632 26780 ft 508 kts 143°
2026-04-26 08:09 58.97530 19.29292 27165 ft 511 kts 144°
2026-04-26 08:09 58.94500 19.32975 27567 ft 514 kts 144°
2026-04-26 08:09 58.91467 19.36670 28014 ft 517 kts 143°
2026-04-26 08:09 58.88428 19.40367 28381 ft 520 kts 143°
2026-04-26 08:10 58.85351 19.44104 28736 ft 523 kts 144°
2026-04-26 08:10 58.82302 19.47798 29095 ft 525 kts 144°
2026-04-26 08:10 58.79203 19.51545 29441 ft 528 kts 144°
2026-04-26 08:10 58.76077 19.55318 29774 ft 531 kts 144°
2026-04-26 08:11 58.72938 19.59098 30097 ft 533 kts 144°
2026-04-26 08:11 58.69793 19.62876 30396 ft 535 kts 144°
2026-04-26 08:11 58.66630 19.66668 30715 ft 536 kts 144°
2026-04-26 08:11 58.63452 19.70469 30934 ft 538 kts 145°
2026-04-26 08:12 58.57356 19.77740 31043 ft 545 kts 144°
2026-04-26 08:12 58.50965 19.85329 30982 ft 542 kts 144°
2026-04-26 08:13 58.44541 19.92923 30980 ft 542 kts 144°
2026-04-26 08:13 58.38146 20.00452 30979 ft 542 kts 145°
2026-04-26 08:14 58.31709 20.07996 30974 ft 543 kts 145°
2026-04-26 08:14 58.25274 20.15505 30965 ft 544 kts 145°
2026-04-26 08:15 58.18872 20.22944 30984 ft 540 kts 145°
2026-04-26 08:15 58.12449 20.30377 30977 ft 540 kts 145°
2026-04-26 08:16 58.06020 20.37790 30971 ft 540 kts 145°
2026-04-26 08:16 57.99449 20.44510 30995 ft 542 kts 151°
2026-04-26 08:17 57.92724 20.50959 30921 ft 542 kts 150°
2026-04-26 08:17 57.85984 20.57472 30995 ft 540 kts 150°
2026-04-26 08:18 57.79350 20.63860 30965 ft 539 kts 150°
2026-04-26 08:18 57.72655 20.70279 30956 ft 539 kts 150°
2026-04-26 08:19 57.65995 20.76639 30959 ft 539 kts 150°
2026-04-26 08:19 57.59307 20.82999 30959 ft 539 kts 150°
2026-04-26 08:20 57.52579 20.89369 31022 ft 542 kts 151°
2026-04-26 08:20 57.45945 20.95626 30956 ft 536 kts 151°
2026-04-26 08:21 57.39271 21.01894 30934 ft 536 kts 151°
2026-04-26 08:21 57.32654 21.08083 30936 ft 536 kts 151°
2026-04-26 08:22 57.25983 21.14297 30935 ft 536 kts 151°
2026-04-26 08:22 57.19280 21.20516 30906 ft 541 kts 152°
2026-04-26 08:23 57.12599 21.26689 30962 ft 533 kts 152°
2026-04-26 08:23 57.05967 21.32793 30936 ft 532 kts 152°
2026-04-26 08:24 56.99358 21.38850 30937 ft 532 kts 152°
2026-04-26 08:24 56.92757 21.44875 30931 ft 532 kts 152°
2026-04-26 08:25 56.86128 21.50903 30932 ft 532 kts 152°
2026-04-26 08:25 56.79495 21.56910 30968 ft 526 kts 152°
2026-04-26 08:26 56.72994 21.62775 30929 ft 523 kts 152°
2026-04-26 08:26 56.66450 21.68655 30918 ft 523 kts 152°
2026-04-26 08:27 56.59916 21.74505 30918 ft 523 kts 152°
2026-04-26 08:27 56.53369 21.80344 30867 ft 525 kts 152°
2026-04-26 08:28 56.46806 21.86177 30956 ft 530 kts 153°
2026-04-26 08:28 56.40241 21.91995 30922 ft 521 kts 152°
2026-04-26 08:29 56.37209 21.95508 30883 ft 515 kts 136°
2026-04-26 08:29 56.34689 21.99948 30917 ft 512 kts 130°
2026-04-26 08:29 56.29698 22.09158 30889 ft 513 kts 130°
2026-04-26 08:30 56.24727 22.18358 30902 ft 513 kts 130°
2026-04-26 08:30 56.19771 22.27499 30934 ft 510 kts 131°
2026-04-26 08:31 56.14861 22.36527 30857 ft 507 kts 130°
2026-04-26 08:31 56.09930 22.45556 30289 ft 504 kts 130°
2026-04-26 08:32 56.07464 22.50055 29574 ft 505 kts 130°
2026-04-26 08:32 56.05005 22.54532 28981 ft 501 kts 130°
2026-04-26 08:32 56.02578 22.58945 28513 ft 495 kts 130°
2026-04-26 08:32 56.00169 22.63318 27991 ft 490 kts 130°
2026-04-26 08:33 55.97812 22.67587 27490 ft 486 kts 130°
2026-04-26 08:33 55.95448 22.71860 26987 ft 482 kts 130°
2026-04-26 08:33 55.93100 22.76098 26482 ft 478 kts 130°
2026-04-26 08:33 55.90773 22.80290 25991 ft 474 kts 131°
2026-04-26 08:34 55.88457 22.84455 25519 ft 470 kts 131°
2026-04-26 08:34 55.86188 22.88529 25044 ft 467 kts 131°
2026-04-26 08:34 55.83902 22.92624 24586 ft 463 kts 131°
2026-04-26 08:34 55.81636 22.96676 24122 ft 460 kts 131°
2026-04-26 08:35 55.79378 23.00709 23663 ft 457 kts 131°
2026-04-26 08:35 55.77139 23.04699 23147 ft 455 kts 131°
2026-04-26 08:35 55.74948 23.08595 22676 ft 450 kts 132°
2026-04-26 08:35 55.72742 23.12514 22188 ft 444 kts 132°
2026-04-26 08:36 55.70568 23.16370 21778 ft 438 kts 132°
2026-04-26 08:36 55.68430 23.20147 21377 ft 432 kts 133°
2026-04-26 08:36 55.66300 23.23885 20964 ft 427 kts 133°
2026-04-26 08:36 55.64206 23.27573 20568 ft 422 kts 133°
2026-04-26 08:37 55.62831 23.29997 20290 ft 419 kts 133°
2026-04-26 08:37 55.60779 23.33614 19895 ft 414 kts 133°
2026-04-26 08:37 55.58086 23.38352 19376 ft 408 kts 133°
2026-04-26 08:37 55.56760 23.40681 19111 ft 406 kts 134°
2026-04-26 08:38 55.54766 23.44181 18731 ft 401 kts 134°
2026-04-26 08:38 55.52789 23.47649 18370 ft 398 kts 134°
2026-04-26 08:38 55.50835 23.51071 17952 ft 394 kts 134°
2026-04-26 08:38 55.48888 23.54475 17541 ft 390 kts 134°
2026-04-26 08:39 55.46969 23.57811 17139 ft 385 kts 136°
2026-04-26 08:39 55.44796 23.60385 16718 ft 381 kts 158°
2026-04-26 08:39 55.42263 23.61544 16428 ft 371 kts 174°
2026-04-26 08:39 55.39719 23.62190 16093 ft 366 kts 174°
2026-04-26 08:40 55.37210 23.62804 15742 ft 362 kts 174°
2026-04-26 08:40 55.34723 23.63389 15392 ft 358 kts 175°
2026-04-26 08:40 55.32289 23.63951 15016 ft 355 kts 175°
2026-04-26 08:40 55.29847 23.64509 14694 ft 351 kts 175°
2026-04-26 08:41 55.27433 23.65057 14354 ft 348 kts 175°
2026-04-26 08:41 55.25043 23.65599 14027 ft 345 kts 175°
2026-04-26 08:41 55.22662 23.66138 13691 ft 342 kts 175°
2026-04-26 08:41 55.20305 23.66671 13329 ft 340 kts 175°
2026-04-26 08:42 55.17996 23.67192 12985 ft 337 kts 175°
2026-04-26 08:42 55.15680 23.67714 12651 ft 334 kts 175°
2026-04-26 08:42 55.13382 23.68232 12333 ft 331 kts 175°
2026-04-26 08:42 55.11108 23.68933 11996 ft 338 kts 163°
2026-04-26 08:43 55.09039 23.70909 11584 ft 340 kts 138°
2026-04-26 08:43 55.07560 23.74087 11229 ft 335 kts 114°
2026-04-26 08:43 55.06767 23.77829 11039 ft 324 kts 102°
2026-04-26 08:43 55.06154 23.81506 10945 ft 314 kts 101°
2026-04-26 08:44 55.05582 23.85140 10860 ft 307 kts 96°
2026-04-26 08:44 55.05513 23.88785 10584 ft 297 kts 78°
2026-04-26 08:44 55.05685 23.92388 10299 ft 297 kts 79°
2026-04-26 08:44 55.05852 23.95951 10012 ft 294 kts 79°
2026-04-26 08:45 55.06020 23.99452 9730 ft 291 kts 78°
2026-04-26 08:45 55.06189 24.02949 9424 ft 287 kts 78°
2026-04-26 08:45 55.06356 24.06405 9152 ft 284 kts 78°
2026-04-26 08:45 55.06521 24.09823 8883 ft 280 kts 78°
2026-04-26 08:46 55.06682 24.13178 8619 ft 276 kts 78°
2026-04-26 08:46 55.06843 24.16531 8360 ft 277 kts 78°
2026-04-26 08:46 55.07001 24.19851 8114 ft 277 kts 78°
2026-04-26 08:46 55.07160 24.23211 7843 ft 278 kts 78°
2026-04-26 08:47 55.07317 24.26573 7583 ft 278 kts 79°
2026-04-26 08:47 55.07475 24.29934 7315 ft 277 kts 78°
2026-04-26 08:47 55.07630 24.33275 7053 ft 276 kts 78°
2026-04-26 08:47 55.07784 24.36610 6781 ft 273 kts 78°
2026-04-26 08:48 55.07933 24.39862 6480 ft 271 kts 78°
2026-04-26 08:48 55.08083 24.43128 6220 ft 268 kts 79°
2026-04-26 08:48 55.07909 24.46381 5916 ft 276 kts 105°
2026-04-26 08:48 55.06879 24.49233 5633 ft 279 kts 133°
2026-04-26 08:49 55.05469 24.51516 5392 ft 271 kts 135°
2026-04-26 08:49 55.03998 24.53409 5119 ft 264 kts 159°
2026-04-26 08:49 55.02247 24.53879 4824 ft 250 kts 193°
2026-04-26 08:49 55.00656 24.53006 4588 ft 233 kts 211°
2026-04-26 08:50 54.99167 24.51836 4425 ft 235 kts 212°
2026-04-26 08:50 54.97907 24.50252 4212 ft 218 kts 242°
2026-04-26 08:50 54.97352 24.47966 4016 ft 199 kts 271°
2026-04-26 08:50 54.97419 24.45623 3894 ft 193 kts 284°
2026-04-26 08:51 54.97854 24.41005 3661 ft 189 kts 286°
2026-04-26 08:51 54.97924 24.38714 3466 ft 192 kts 272°
2026-04-26 08:51 54.97789 24.36395 3277 ft 190 kts 271°
2026-04-26 08:52 54.97661 24.34138 3046 ft 184 kts 272°
2026-04-26 08:52 54.97553 24.32031 2812 ft 170 kts 272°
2026-04-26 08:52 54.97456 24.30044 2590 ft 163 kts 273°
2026-04-26 08:52 54.97360 24.28078 2380 ft 161 kts 273°
2026-04-26 08:53 54.97264 24.26169 2176 ft 152 kts 273°
2026-04-26 08:53 54.97177 24.24415 1974 ft 145 kts 274°
2026-04-26 08:53 54.97093 24.22695 1797 ft 141 kts 275°
2026-04-26 08:53 54.97013 24.20981 1576 ft 139 kts 272°
2026-04-26 08:54 54.96925 24.19354 1368 ft 135 kts 271°
2026-04-26 08:54 54.96832 24.17774 1141 ft 129 kts 274°
2026-04-26 08:54 54.96767 24.16094 880 ft 148 kts 270°
2026-04-26 08:54 54.96681 24.14280 743 ft 146 kts 270°
2026-04-26 08:55 54.96587 24.12569 531 ft 140 kts 272°
2026-04-26 08:55 54.96508 24.10878 372 ft 147 kts 269°
2026-04-26 08:55 54.96386 24.09083 909 ft 143 kts 269°
2026-04-26 08:55 54.96251 24.07372 1677 ft 146 kts 272°
2026-04-26 08:56 54.96102 24.05501 2107 ft 159 kts 271°
2026-04-26 08:56 54.96037 24.03563 2502 ft 161 kts 275°
2026-04-26 08:56 54.96305 24.01711 3036 ft 164 kts 311°
2026-04-26 08:56 54.97296 24.00653 3747 ft 179 kts 345°
2026-04-26 08:57 54.98590 24.00561 3992 ft 190 kts 358°
2026-04-26 08:57 54.99907 24.00676 4001 ft 189 kts 358°
2026-04-26 08:57 55.01228 24.00802 4024 ft 190 kts 358°
2026-04-26 08:57 55.02553 24.00922 4025 ft 191 kts 358°
2026-04-26 08:58 55.03880 24.01044 4036 ft 190 kts 360°
2026-04-26 08:58 55.05118 24.01841 3974 ft 202 kts 31°
2026-04-26 08:58 55.05927 24.03951 4014 ft 222 kts 65°
2026-04-26 08:58 55.06073 24.06708 4043 ft 231 kts 79°
2026-04-26 08:59 55.06248 24.09481 4047 ft 228 kts 74°
2026-04-26 08:59 55.06486 24.12218 4049 ft 228 kts 73°
2026-04-26 08:59 55.06730 24.14953 4019 ft 228 kts 73°
2026-04-26 08:59 55.06973 24.17648 3973 ft 228 kts 73°
2026-04-26 09:00 55.07197 24.20384 3992 ft 228 kts 73°
2026-04-26 09:00 55.07427 24.23116 3997 ft 227 kts 73°
2026-04-26 09:00 55.07660 24.25855 4024 ft 229 kts 73°
2026-04-26 09:00 55.07902 24.28606 3999 ft 229 kts 73°
2026-04-26 09:01 55.08151 24.31368 4013 ft 229 kts 73°
2026-04-26 09:01 55.08326 24.34121 3996 ft 232 kts 78°
2026-04-26 09:01 55.08442 24.36934 3987 ft 232 kts 78°
2026-04-26 09:01 55.08455 24.39775 3938 ft 236 kts 87°
2026-04-26 09:02 55.08322 24.42630 3941 ft 236 kts 88°
2026-04-26 09:02 55.07898 24.45395 3912 ft 245 kts 116°
2026-04-26 09:02 55.06716 24.47524 3917 ft 248 kts 150°
2026-04-26 09:02 55.05098 24.48594 3969 ft 248 kts 167°
2026-04-26 09:03 55.03424 24.49356 3967 ft 249 kts 168°
2026-04-26 09:03 55.01761 24.50096 3955 ft 248 kts 168°
2026-04-26 09:03 55.00097 24.50839 3700 ft 247 kts 168°
2026-04-26 09:03 54.98427 24.51081 3441 ft 235 kts 196°
2026-04-26 09:04 54.96984 24.50009 3112 ft 219 kts 227°
2026-04-26 09:04 54.96140 24.48010 2902 ft 196 kts 259°
2026-04-26 09:04 54.96100 24.45756 2923 ft 183 kts 289°
2026-04-26 09:04 54.96477 24.43658 2989 ft 180 kts 292°
2026-04-26 09:05 54.96855 24.41590 2970 ft 178 kts 291°
2026-04-26 09:05 54.97173 24.39534 2961 ft 178 kts 288°
2026-04-26 09:05 54.97408 24.37492 2980 ft 165 kts 284°
2026-04-26 09:05 54.97536 24.35533 3009 ft 161 kts 281°
2026-04-26 09:06 54.97573 24.33562 2938 ft 164 kts 276°
2026-04-26 09:06 54.97526 24.31602 2741 ft 164 kts 273°
2026-04-26 09:06 54.97435 24.29621 2541 ft 163 kts 272°
2026-04-26 09:06 54.97339 24.27662 2370 ft 158 kts 272°
2026-04-26 09:07 54.97248 24.25849 2159 ft 146 kts 273°
2026-04-26 09:07 54.97163 24.24105 1951 ft 144 kts 273°
2026-04-26 09:07 54.97077 24.22396 1775 ft 137 kts 273°
2026-04-26 09:07 54.97000 24.20788 1587 ft 133 kts 273°
2026-04-26 09:08 54.96921 24.19192 1392 ft 133 kts 272°
2026-04-26 09:08 54.96836 24.17575 1170 ft 135 kts 271°
2026-04-26 09:08 54.96760 24.15915 975 ft 140 kts 270°
2026-04-26 09:08 54.96678 24.14206 761 ft 142 kts 268°
2026-04-26 09:09 54.96568 24.12530 574 ft 137 kts 266°
2026-04-26 09:09 54.96496 24.10903 362 ft 134 kts 272°
2026-04-26 09:09 54.96427 24.09301 269 ft 126 kts 265°
2026-04-26 09:09 54.96369 24.08128 271 ft 74 kts 264°
2026-04-26 09:10 54.96334 24.07481 269 ft 27 kts 265°
2026-04-26 09:10 54.96398 24.07345 270 ft 15 kts 355°
2026-04-26 09:10 54.96494 24.07329 270 ft 11 kts 355°
2026-04-26 09:10 54.96573 24.07318 270 ft 10 kts 354°
2026-04-26 09:11 54.96633 24.07329 270 ft 6 kts 55°
2026-04-26 09:11 54.96631 24.07377 270 ft 2 kts 104°
2026-04-26 09:11 54.96627 24.07400 270 ft 0 kts 105°